Weather History for Ogden Hill AFB, UT

Change the Weather History Date:

Monday, December 2, 2013

  Actual Average Record
Temperature  
Mean Temperature 43 °F -  
Max Temperature 51 °F 38 °F 55 °F (1998)
Min Temperature 35 °F 24 °F 8 °F (1979)
Degree Days  
Heating Degree Days 22    
Moisture  
Dew Point 31 °F    
Average Humidity 59    
Maximum Humidity 87    
Minimum Humidity 34    
Precipitation  
Precipitation 0.08 in - - ()
Sea Level Pressure  
Sea Level Pressure 29.74 in    
Wind  
Wind Speed 13 mph (South)    
Max Wind Speed 23 mph    
Max Gust Speed 25 mph    
Visibility 10 miles    
Events Rain , Snow    
Averages and records for this station are not official NWS values.
T = Trace of Precipitation, MM = Missing Value Source: NWS Daily Summary

Daily Weather History Graph

Daily Weather History Graph

Search for Another Location

Airport:

Trip Planner

Search our weather history database for the weather conditions in past years. The results will help you decide how hot, cold, wet, or windy it might be!

Date:

Astronomy

Dec. 02, 2013 Rise Set
Actual Time 7:35 AM MST 4:59 PM MST
Civil Twilight 7:04 AM MST 5:30 PM MST
Nautical Twilight 6:30 AM MST 6:04 PM MST
Astronomical Twilight 5:56 AM MST 6:37 PM MST
Moon 7:03 AM MST (12/2) 5:06 PM MST (12/2)
Length of Visible Light 10h 25m
Length of Day
9h 24m
Waning Crescent, 0% of the Moon is Illuminated
Dec 2
Waning Crescent
Dec 2
New
Dec 9
First Quarter
Dec 17
Full
Dec 25
Last Quarter

Hourly Weather History & Observations

Time (MST) Temp. Windchill Dew Point Humidity Pressure Visibility Wind Dir Wind Speed Gust Speed Precip Events Conditions
12:58 AM 45.7 °F 38.8 °F 25.7 °F 46% 30.03 in 10.0 mi South 16.1 mph - N/A   Overcast
1:03 AM 46.4 °F 39.8 °F 24.8 °F 43% 30.08 in 10.0 mi South 16.1 mph - N/A   Overcast
1:38 AM 44.6 °F 38.1 °F 26.6 °F 49% 30.07 in 10.0 mi South 13.8 mph - N/A   Scattered Clouds
1:58 AM 45.0 °F 38.5 °F 26.1 °F 48% 30.02 in 10.0 mi South 13.8 mph - N/A   Clear
2:58 AM 45.7 °F 38.8 °F 26.1 °F 46% 29.99 in 10.0 mi South 16.1 mph - N/A   Overcast
3:58 AM 45.7 °F 39.5 °F 26.8 °F 48% 29.96 in 10.0 mi South 13.8 mph - N/A   Mostly Cloudy
4:58 AM 46.2 °F 39.0 °F 27.1 °F 47% 29.93 in 10.0 mi South 18.4 mph - N/A   Overcast
5:53 AM 46.4 °F 39.5 °F 26.6 °F 46% 29.96 in 10.0 mi South 17.3 mph - N/A   Overcast
5:58 AM 45.9 °F 39.1 °F 27.3 °F 48% 29.91 in 10.0 mi South 16.1 mph - N/A   Overcast
6:58 AM 45.9 °F 38.3 °F 27.3 °F 48% 29.88 in 10.0 mi South 19.6 mph - N/A   Mostly Cloudy
7:08 AM 46.4 °F 39.2 °F 26.6 °F 46% 29.93 in 10.0 mi South 18.4 mph - N/A   Mostly Cloudy
7:58 AM 46.4 °F 40.4 °F 27.0 °F 47% 29.87 in 10.0 mi South 13.8 mph - N/A   Overcast
8:58 AM 46.8 °F - 27.1 °F 46% 29.87 in 10.0 mi South 12.7 mph - N/A   Mostly Cloudy
9:58 AM 48.2 °F - 26.1 °F 42% 29.84 in 10.0 mi South 15.0 mph - N/A   Overcast
10:58 AM 49.1 °F - 25.3 °F 40% 29.82 in 10.0 mi South 15.0 mph - N/A   Overcast
11:58 AM 49.8 °F - 24.8 °F 38% 29.79 in 10.0 mi South 13.8 mph - N/A   Overcast
12:58 PM 50.2 °F - 23.9 °F 36% 29.75 in 10.0 mi SSW 15.0 mph - N/A   Overcast
1:58 PM 51.6 °F - 23.9 °F 34% 29.73 in 10.0 mi SW 5.8 mph - N/A   Overcast
2:58 PM 50.9 °F - 24.6 °F 36% 29.70 in 10.0 mi NW 10.4 mph 20.7 mph N/A   Overcast
3:58 PM 50.5 °F - 26.1 °F 39% 29.70 in 10.0 mi WNW 10.4 mph - N/A   Overcast
4:58 PM 49.8 °F - 28.9 °F 45% 29.69 in 10.0 mi NW 16.1 mph 21.9 mph N/A   Overcast
5:43 PM 50.0 °F - 28.4 °F 43% 29.75 in 10.0 mi West 6.9 mph - N/A   Overcast
5:53 PM 50.0 °F - 28.4 °F 43% 29.74 in 10.0 mi West 4.6 mph - N/A   Overcast
5:58 PM 49.5 °F - 28.9 °F 45% 29.67 in 10.0 mi WSW 4.6 mph - N/A   Overcast
6:46 PM 50.0 °F - 30.2 °F 47% 29.72 in 10.0 mi West 6.9 mph - N/A Rain Light Rain
6:50 PM 50.0 °F - 30.2 °F 47% 29.72 in 10.0 mi NW 10.4 mph - N/A   Mostly Cloudy
6:58 PM 49.6 °F - 29.1 °F 45% 29.65 in 10.0 mi NW 9.2 mph - 0.00 in   Overcast
7:08 PM 50.0 °F - 30.2 °F 47% 29.71 in 10.0 mi Variable 4.6 mph - N/A   Overcast
7:43 PM 48.2 °F - 28.4 °F 46% 29.70 in 10.0 mi SW 12.7 mph - N/A   Mostly Cloudy
7:47 PM 48.2 °F - 28.4 °F 46% 29.70 in 10.0 mi South 12.7 mph - N/A   Mostly Cloudy
7:52 PM 48.2 °F - 30.2 °F 50% 29.69 in 10.0 mi SW 17.3 mph 23.0 mph N/A   Overcast
7:53 PM 48.2 °F - 30.2 °F 50% 29.70 in 10.0 mi WSW 13.8 mph 23.0 mph N/A Rain Light Rain
7:58 PM 48.7 °F - 29.7 °F 48% 29.63 in 10.0 mi SSW 9.2 mph 23.0 mph 0.00 in Rain Light Rain
8:02 PM 48.2 °F - 32.0 °F 54% 29.70 in 10.0 mi WSW 11.5 mph 23.0 mph N/A   Overcast
8:04 PM 48.2 °F - 32.0 °F 54% 29.70 in 10.0 mi SW 9.2 mph 23.0 mph N/A Rain Light Rain
8:26 PM 46.4 °F 40.1 °F 32.0 °F 57% 29.68 in 10.0 mi South 15.0 mph - N/A   Mostly Cloudy
8:28 PM 46.4 °F 40.1 °F 32.0 °F 57% 29.68 in 10.0 mi South 15.0 mph 20.7 mph N/A Rain Light Rain
8:34 PM 46.4 °F 40.1 °F 33.8 °F 62% 29.67 in 10.0 mi SSE 15.0 mph 20.7 mph N/A Rain Light Rain
8:58 PM 43.9 °F 39.3 °F 35.6 °F 73% 29.61 in 10.0 mi ESE 8.1 mph - 0.00 in Rain Light Rain
9:03 PM 42.8 °F 37.5 °F 35.6 °F 76% 29.66 in 10.0 mi SE 9.2 mph - N/A Rain Light Rain
9:11 PM 42.8 °F 38.0 °F 35.6 °F 76% 29.66 in 10.0 mi SE 8.1 mph - N/A   Mostly Cloudy
9:28 PM 42.8 °F 36.6 °F 35.6 °F 76% 29.66 in 10.0 mi ESE 11.5 mph - N/A Rain Light Rain
9:38 PM 41.0 °F 35.8 °F 35.6 °F 81% 29.66 in 10.0 mi East 8.1 mph - N/A Rain Light Rain
9:44 PM 41.0 °F 36.4 °F 35.6 °F 81% 29.66 in 10.0 mi East 6.9 mph - N/A   Scattered Clouds
9:49 PM 41.0 °F 36.4 °F 35.6 °F 81% 29.66 in 10.0 mi East 6.9 mph - N/A   Mostly Cloudy
9:54 PM 41.0 °F 39.0 °F 35.6 °F 81% 29.66 in 10.0 mi East 3.5 mph - N/A   Mostly Cloudy
9:55 PM 41.0 °F - 35.6 °F 81% 29.66 in 10.0 mi East 2.3 mph - N/A Rain Light Rain
9:58 PM 41.0 °F - 35.6 °F 81% 29.62 in 10.0 mi Calm Calm - 0.01 in Rain Light Rain
10:28 PM 42.8 °F 40.1 °F 35.6 °F 76% 29.67 in 10.0 mi Variable 4.6 mph - N/A Rain Light Rain
10:33 PM 42.8 °F 38.6 °F 35.6 °F 76% 29.66 in 9.0 mi East 6.9 mph - N/A Rain Light Rain
10:38 PM 42.8 °F 39.3 °F 35.6 °F 76% 29.66 in 10.0 mi ESE 5.8 mph - N/A Rain Light Rain
10:53 PM 41.0 °F 35.8 °F 37.4 °F 87% 29.65 in 10.0 mi ESE 8.1 mph - N/A Rain Light Rain
10:54 PM 41.0 °F 35.8 °F 37.4 °F 87% 29.65 in 10.0 mi East 8.1 mph - N/A   Mostly Cloudy
10:58 PM 41.0 °F 38.0 °F 36.5 °F 84% 29.59 in 10.0 mi East 4.6 mph - 0.04 in   Mostly Cloudy
11:07 PM 41.0 °F 35.8 °F 35.6 °F 81% 29.65 in 10.0 mi East 8.1 mph - N/A Rain Light Rain
11:27 PM 41.0 °F 38.0 °F 35.6 °F 81% 29.65 in 9.0 mi ESE 4.6 mph - N/A Rain Light Rain
11:37 PM 41.0 °F 31.1 °F 35.6 °F 81% 29.67 in 10.0 mi NNW 23.0 mph 25.3 mph N/A Rain Light Rain
11:39 PM 39.2 °F 29.8 °F 32.0 °F 75% 29.67 in 10.0 mi North 18.4 mph 25.3 mph N/A Snow Light Snow Grains
11:42 PM 37.4 °F 28.2 °F 32.0 °F 81% 29.66 in 10.0 mi North 16.1 mph 25.3 mph N/A Snow Light Snow Grains
11:51 PM 35.6 °F 27.1 °F 32.0 °F 87% 29.66 in 10.0 mi North 12.7 mph - N/A Snow Light Snow
11:58 PM 35.6 °F 27.5 °F 30.7 °F 82% 29.62 in 10.0 mi North 11.5 mph - 0.03 in   Overcast